Location: Unspecified
(0.0000°N, 0.0000°E)
Time: 23:20:54
(UTC+00:00)

Vanguard 2 - Pass Details

Date: 06 October 2020
Orbit: 554 x 2937 km, 32.9° (Epoch: 28 October)

Event Time Altitude Azimuth Distance (km) Brightness Sun altitude
Rises 23:58:20 0° 245° (WSW) 6,761 12.3 -84.2°
Enters shadow 23:59:56 - 246° (WSW) 6,421 12.2 -84.0°
Reaches altitude 10° 00:03:00 10° 249° (WSW) 5,768 - -83.6°
Maximum altitude 00:20:06 55° 322° (NW) 2,934 - -80.5°
Drops below altitude 10° 00:32:39 10° 38° (NE) 4,328 - -77.7°
Sets 00:35:39 0° 43° (NE) 5,037 - -77.0°
